GFSNE_sfc_wetblb_150.txt.gz
Wetbulb
55.03 55.22 54.72 54.92 55.13 55.31 55.46 55.69 53.20 49.24 50.35 50.20 48.24 47.97 47.01 47.42 47.55 46.23 45.69 48.05 48.73 48.52 48.17 47.31 47.11 47.27 47.77 48.15 48.44 48.56 48.69 49.11 49.48 49.59 49.87 50.53 51.25 51.44
51.63 52.48 51.59 51.37 52.12 52.32 52.10 52.90 53.33 52.87 50.21 49.32 45.66 45.84 45.91 44.31 45.32 44.26 44.08 43.74 43.85 44.41 45.13 44.96 45.25 45.88 46.46 46.17 46.23 46.36 46.64 46.97 47.54 48.36 49.31 49.62 49.96 50.46
48.13 47.78 46.80 46.71 46.65 46.64 47.82 48.66 47.90 48.74 50.52 45.76 45.63 44.31 42.26 42.80 42.14 42.29 41.78 42.05 41.31 42.12 42.86 43.54 44.85 44.83 44.52 44.21 44.32 44.72 45.24 45.86 46.32 46.64 47.05 47.72 48.06 48.48
44.14 44.09 43.90 46.34 43.62 43.19 42.84 41.64 40.84 42.46 46.96 45.62 43.43 41.61 40.23 40.56 40.80 40.23 39.70 40.32 39.99 41.39 42.38 42.21 43.30 43.33 43.27 43.19 43.14 43.04 43.73 44.05 43.82 44.34 44.78 45.78 46.60 47.11
41.19 40.17 39.36 40.92 42.51 42.92 42.01 39.07 40.13 42.69 45.16 44.02 40.25 40.78 39.12 38.09 38.21 38.11 35.58 36.15 39.01 41.45 41.74 42.21 42.27 42.37 42.58 42.43 42.27 41.94 41.70 41.79 42.44 43.08 43.48 43.91 45.08 46.14
39.61 38.81 38.48 38.34 39.01 39.69 39.13 35.85 37.12 37.47 41.01 40.15 38.70 36.99 37.05 36.84 36.07 32.34 32.36 33.94 34.11 39.35 40.48 40.17 40.39 40.79 40.87 41.69 41.44 40.73 40.68 40.94 41.56 42.15 42.81 44.02 44.38 44.68
37.60 37.92 37.78 39.47 41.10 40.38 36.93 34.54 33.67 33.53 34.23 33.96 34.05 35.47 34.31 32.02 30.50 31.92 31.20 32.04 33.28 34.96 32.64 32.59 32.66 33.32 35.79 39.05 39.96 40.71 40.57 40.79 40.79 41.66 42.68 42.52 42.54 42.71
36.85 36.27 37.13 38.83 39.18 40.22 39.75 40.11 38.53 33.76 32.29 31.66 30.27 29.56 29.25 29.77 30.73 30.38 30.21 28.99 27.59 32.75 29.99 29.41 32.25 32.57 34.19 34.42 39.72 39.80 40.20 39.87 40.98 40.79 40.74 40.68 40.83 41.16
36.12 35.57 34.57 35.36 36.78 35.23 37.65 38.05 38.17 38.87 37.79 32.09 29.21 29.11 29.28 30.56 30.99 29.69 29.26 28.25 27.81 30.40 29.49 27.45 30.67 29.64 32.87 34.82 37.42 39.39 39.22 40.14 39.94 39.87 40.06 40.17 40.01 40.03
35.80 35.33 33.80 33.31 34.39 34.10 32.97 32.47 31.79 31.73 32.34 33.57 31.23 30.79 31.23 31.61 30.67 30.43 29.15 28.31 28.98 30.92 30.26 24.01 28.27 27.25 29.81 30.58 36.69 38.28 38.45 38.80 38.92 39.13 39.34 39.42 39.35 39.39
35.72 35.46 35.06 34.26 36.91 36.54 33.27 31.12 31.02 30.66 34.86 35.94 35.89 35.32 35.36 34.61 32.87 28.91 25.47 25.49 24.83 26.22 27.74 26.27 26.17 26.13 26.74 27.99 32.28 36.97 37.24 37.26 37.77 38.75 38.52 38.39 38.29 38.25
33.87 34.28 39.43 36.19 39.22 37.33 32.75 29.94 28.92 29.58 29.11 28.53 28.84 30.75 31.95 31.14 32.74 28.67 27.35 21.55 22.91 22.03 29.46 23.23 23.67 24.79 20.17 24.79 27.54 29.77 30.59 34.97 35.81 35.85 36.91 37.27 36.91 34.35
32.49 32.04 33.69 39.10 39.88 38.45 36.89 30.85 30.72 31.65 32.06 28.22 27.44 27.30 27.90 27.78 28.14 28.05 27.90 23.39 21.98 22.36 27.72 27.93 26.07 25.67 24.83 23.22 24.11 24.51 26.83 28.47 29.63 32.29 34.90 35.19 35.81 35.45
31.48 32.07 32.99 38.91 38.75 38.95 37.40 36.46 36.14 34.10 29.34 27.65 27.00 26.61 26.15 26.11 25.69 25.84 27.01 26.24 26.87 26.30 27.44 24.33 19.20 20.97 24.77 24.14 23.77 24.60 27.12 27.28 28.68 30.77 31.89 34.00 34.82 35.03
32.87 34.37 36.85 39.92 38.97 37.86 38.00 37.90 36.65 30.86 28.66 27.56 26.72 25.64 25.22 24.05 24.41 23.82 24.52 25.95 22.34 26.46 29.56 23.00 22.78 16.67 19.97 23.93 23.52 24.85 25.91 26.05 28.54 29.69 31.00 31.13 30.63 30.99
37.08 35.08 36.65 37.25 36.83 35.18 35.13 35.00 32.03 30.28 28.86 26.12 26.47 25.40 23.99 21.44 23.11 20.03 15.97 16.19 13.44 16.80 23.86 20.34 20.51 26.10 26.19 26.17 25.54 24.44 26.37 25.07 25.46 28.90 30.99 30.55 30.96 31.20
34.75 32.05 31.72 30.55 30.14 30.64 30.23 30.37 30.55 30.00 29.03 27.24 26.09 23.91 25.36 27.29 26.99 24.62 18.31 13.55 13.04 13.03 15.45 19.09 24.26 28.91 28.29 26.83 24.27 25.14 25.21 26.20 27.47 29.16 28.35 27.91 29.67 30.31
34.82 31.71 30.92 30.67 30.67 31.07 30.22 29.60 29.94 31.60 29.33 29.21 28.42 27.09 25.49 25.01 25.60 26.02 25.17 24.66 23.39 21.83 13.37 14.86 24.96 25.46 25.72 24.14 28.88 22.71 22.36 24.20 25.33 25.00 27.27 27.26 27.03 28.82
34.72 32.15 31.12 31.11 31.32 31.21 31.06 29.78 29.34 30.13 29.87 28.80 27.22 25.40 23.83 22.63 25.48 24.50 24.54 24.52 24.06 24.15 22.87 24.01 24.35 23.54 21.27 19.66 23.56 29.73 22.27 23.39 24.16 26.10 28.18 27.87 26.85 27.99
35.47 32.95 32.25 32.23 32.18 31.63 31.13 30.65 30.69 29.91 29.12 28.06 26.54 25.09 23.83 23.84 23.75 23.41 23.70 22.96 22.98 23.05 22.97 18.78 15.30 23.55 22.26 20.94 21.65 24.37 29.29 25.91 26.32 26.68 27.37 29.01 30.61 33.57
34.20 34.43 33.86 33.05 32.65 32.43 32.15 31.94 31.16 29.85 28.74 27.43 26.61 25.17 24.23 23.31 23.54 23.41 23.33 25.11 25.04 24.00 22.03 22.03 23.52 27.71 26.38 26.28 21.71 23.23 25.57 30.59 30.91 28.61 28.92 28.31 27.76 27.81
33.08 34.02 33.94 33.58 33.17 32.65 32.26 32.01 31.12 31.01 29.45 27.87 26.77 25.88 25.47 24.84 23.68 23.28 23.32 22.86 23.06 23.02 22.58 23.64 24.79 24.73 23.88 23.13 22.01 23.18 25.38 28.23 31.10 32.76 33.55 32.72 28.60 25.48
33.07 33.29 34.03 33.61 33.50 32.74 32.42 31.81 31.28 30.36 29.31 28.33 26.95 26.60 25.67 24.41 24.96 24.48 24.18 24.32 23.67 22.63 22.71 22.23 23.21 23.95 23.34 23.71 24.51 24.18 25.18 26.36 27.58 27.75 27.83 32.72 33.76 34.37

GFSNE_sfc_wetblb_156.txt.gz
Wetbulb
48.04 48.35 49.14 49.84 50.69 50.10 50.09 51.95 50.36 45.65 48.39 48.34 47.07 46.23 46.12 45.49 45.73 44.78 44.31 47.36 49.04 48.80 48.86 48.79 49.51 49.58 49.11 49.07 48.74 48.37 48.44 48.41 48.67 49.14 49.73 50.40 50.79 51.03
47.43 46.50 46.75 46.43 46.05 46.61 48.15 49.30 50.23 48.89 47.49 47.27 44.09 44.17 44.44 43.73 43.06 42.40 42.60 43.06 45.77 46.58 46.39 46.82 47.46 46.87 46.36 45.87 45.78 45.84 46.14 46.71 47.14 47.43 47.87 48.14 48.53 48.87
43.68 43.32 43.82 43.06 43.11 42.34 42.16 42.27 43.01 46.00 47.43 45.86 44.79 43.71 41.84 41.70 41.55 41.20 41.41 40.40 41.22 44.15 44.41 45.83 45.20 44.46 44.22 44.21 44.01 44.14 44.86 44.88 44.48 44.94 45.49 46.15 46.78 47.22
41.44 40.49 40.34 41.09 41.07 40.26 39.60 38.72 38.95 39.78 45.86 46.46 43.50 41.02 39.64 40.25 39.79 38.86 39.51 39.95 37.45 43.14 43.96 44.44 43.72 43.46 43.35 42.93 42.93 42.70 42.67 42.55 42.98 43.29 43.72 44.28 44.88 45.68
39.37 38.32 37.76 37.41 37.31 37.58 37.49 35.90 36.26 39.42 39.10 44.35 40.71 40.68 38.57 38.33 37.78 38.18 37.11 36.73 39.03 41.58 41.31 40.84 41.41 41.53 41.55 42.01 41.98 41.40 41.27 41.40 42.09 42.19 42.40 43.08 43.74 44.11
38.32 36.95 36.03 35.63 35.39 35.45 35.50 32.96 34.09 34.90 35.96 35.90 37.06 36.60 36.38 35.39 33.20 32.39 30.45 31.86 32.99 34.36 35.60 37.52 38.85 40.73 41.89 41.45 41.10 40.51 40.19 40.99 41.18 41.27 41.73 41.75 41.80 41.96
36.50 36.10 35.66 37.08 40.22 38.58 34.96 32.41 31.08 30.28 30.56 30.90 30.40 30.54 29.74 29.14 28.50 29.20 29.09 29.03 30.01 29.59 29.11 29.92 31.14 32.13 33.37 35.63 36.71 38.66 39.34 39.79 39.94 40.31 40.22 40.62 40.47 40.95
36.38 35.06 34.88 39.21 38.80 39.57 39.66 40.20 36.19 31.55 30.09 28.89 28.09 28.14 27.67 27.87 27.95 28.84 28.27 26.79 25.73 29.54 28.36 28.00 30.06 28.90 29.93 30.82 36.76 38.83 39.43 39.57 39.63 39.77 39.85 39.99 40.03 40.20
36.36 35.44 34.42 36.44 37.19 34.20 37.72 38.42 37.38 38.56 36.24 30.46 28.51 27.92 27.74 28.75 28.87 28.13 27.34 26.78 26.17 28.16 28.05 26.10 27.80 26.87 28.93 31.06 37.26 39.03 39.24 38.82 38.34 38.75 39.05 39.64 39.52 39.31
35.90 35.41 33.74 32.52 32.81 33.37 31.57 30.51 29.62 29.77 31.16 31.80 28.90 29.00 29.64 29.91 29.72 29.11 27.78 27.04 27.61 28.65 27.59 23.32 25.54 25.34 26.87 28.46 38.28 37.35 36.28 36.51 36.53 36.57 36.83 37.34 37.57 38.07
35.17 34.36 33.35 32.42 34.99 38.93 31.68 30.50 28.93 29.85 35.85 36.14 35.21 36.18 35.89 34.59 30.79 28.44 24.42 23.97 23.77 25.15 26.16 24.99 24.23 24.03 24.43 25.39 28.80 34.06 33.98 34.78 35.29 35.18 35.83 36.22 36.45 36.87
33.43 34.43 39.19 35.21 37.98 39.73 32.00 29.55 28.90 28.77 29.52 29.48 29.68 32.46 31.87 31.77 33.13 27.84 26.21 20.85 22.28 21.73 26.22 22.94 22.59 22.64 18.99 23.08 25.32 26.69 26.90 31.89 33.23 33.64 34.68 35.31 35.55 33.66
33.25 33.14 34.05 39.81 40.19 40.17 39.47 30.68 30.56 30.40 31.53 28.16 27.25 27.09 26.92 27.02 27.33 27.16 27.25 22.58 17.04 18.94 27.15 22.66 15.91 19.63 18.30 20.09 22.94 22.79 24.83 26.56 26.65 27.61 31.81 33.23 34.65 34.92
33.22 33.28 33.43 38.29 40.90 41.07 40.12 36.95 36.77 35.57 29.57 27.23 26.53 25.61 25.79 25.43 25.44 25.96 26.45 25.38 25.82 24.07 27.12 24.33 18.12 19.40 21.18 18.69 20.05 22.04 22.79 24.29 24.28 22.98 25.76 29.75 32.23 33.49
35.96 34.36 35.93 37.73 39.89 40.68 41.34 39.50 38.38 31.94 28.75 26.85 26.56 26.78 26.67 26.26 24.56 23.47 23.85 25.07 21.07 25.68 29.12 22.40 19.70 19.86 24.53 22.04 22.67 21.85 24.58 23.79 24.68 19.72 23.74 25.00 26.55 27.80
40.89 36.28 36.52 37.32 38.25 38.10 38.39 39.04 34.02 31.28 29.39 28.75 27.33 26.76 24.92 23.71 23.35 21.32 16.40 15.54 14.79 17.32 22.45 19.01 17.41 21.56 21.20 21.32 23.25 23.28 23.53 21.39 20.94 23.62 24.83 25.46 26.17 27.09
39.37 33.72 33.32 32.98 32.82 33.96 32.82 33.35 33.52 32.31 31.52 29.25 27.33 25.82 26.09 25.92 24.73 20.10 18.25 14.73 13.37 12.61 14.94 20.18 22.94 22.39 24.88 20.26 17.54 22.30 22.69 21.90 21.51 21.91 23.04 22.45 24.76 26.32
36.70 32.86 33.59 32.44 32.12 32.65 32.75 32.78 32.72 33.55 31.95 30.31 28.32 27.08 26.13 25.19 24.50 21.65 20.40 19.99 17.24 15.84 18.88 16.19 14.84 17.37 18.03 23.03 27.14 21.64 20.92 20.02 18.81 22.54 22.90 22.56 23.49 26.88
35.51 34.70 33.48 32.71 31.78 32.18 32.51 32.56 32.20 32.38 32.38 30.90 29.03 27.68 26.75 25.61 26.86 23.38 23.30 22.54 21.29 17.66 17.64 23.85 22.32 16.12 10.88 11.03 20.45 27.90 15.20 18.96 22.68 22.56 23.77 24.05 24.75 26.50
36.08 34.62 33.83 33.41 32.30 31.65 31.64 31.83 31.99 31.64 30.82 30.29 29.38 28.37 26.98 25.61 24.19 23.86 23.87 22.90 21.66 17.57 17.96 16.29 19.83 20.27 14.10 16.25 20.21 18.08 27.89 23.16 22.76 22.44 23.37 25.90 28.40 32.01
34.48 34.68 34.92 33.51 32.03 31.87 31.86 31.88 31.84 31.36 30.77 30.08 29.17 28.09 26.84 26.13 25.27 24.82 24.00 25.62 24.23 20.34 16.16 16.19 20.87 26.65 23.92 21.94 16.67 19.05 22.71 28.63 28.44 25.35 25.28 25.30 24.00 25.42
33.23 33.78 34.65 34.69 32.78 32.27 32.07 32.02 31.68 31.70 31.23 30.32 29.55 28.50 27.64 27.15 25.77 24.54 24.14 23.11 22.98 22.06 18.47 17.24 22.63 20.71 17.34 19.95 16.90 17.63 20.55 24.59 27.81 29.78 31.24 30.64 27.03 22.99
34.43 33.43 33.73 34.13 34.07 32.66 32.26 31.96 31.90 31.94 31.89 30.58 29.56 28.78 27.84 25.89 26.11 25.42 24.70 24.22 23.23 21.11 19.45 18.57 18.53 19.60 20.08 19.13 21.68 19.89 19.50 21.28 23.36 24.29 26.35 31.31 32.72 32.87

GFSNE_sfc_wetblb_159.txt.gz
Wetbulb
48.50 46.44 46.60 47.95 47.68 48.26 47.90 49.39 48.90 45.14 45.65 48.01 47.03 45.87 45.75 44.54 44.39 43.57 42.78 46.98 48.52 49.07 50.27 49.99 49.64 49.62 49.57 49.42 49.57 49.65 49.60 49.68 50.11 50.49 50.34 50.58 50.84 50.88
45.62 44.96 44.80 45.38 44.80 44.46 44.35 47.26 48.75 48.04 45.94 47.46 44.76 44.45 43.95 43.46 42.86 41.64 41.73 43.25 45.93 46.98 47.96 47.11 46.64 46.37 46.37 46.36 46.60 47.10 47.76 47.90 47.85 48.18 48.53 48.65 48.93 49.09
42.88 42.36 41.92 42.11 41.61 41.81 41.33 41.21 41.25 44.34 45.41 46.96 45.14 43.69 42.57 41.86 41.44 40.78 41.05 39.71 38.63 44.90 45.84 45.63 45.02 44.98 45.00 44.92 45.02 45.54 45.41 45.02 45.50 45.87 46.08 46.17 46.38 46.88
41.72 40.13 39.56 40.88 38.87 39.75 39.04 38.40 38.17 38.48 42.67 44.76 44.11 41.90 39.25 39.99 37.81 38.78 38.96 39.42 38.70 43.88 44.38 44.02 43.82 43.57 43.55 43.73 43.28 43.31 43.01 42.81 42.72 43.01 43.51 44.29 44.99 45.38
40.54 38.68 37.90 37.12 36.59 36.84 37.00 35.87 35.42 38.28 37.99 42.91 43.02 40.17 39.04 38.32 36.69 37.81 36.29 36.94 37.20 38.51 39.63 40.99 41.75 41.84 42.03 42.98 42.09 41.87 41.36 41.82 42.05 41.99 42.29 43.01 43.42 43.75
39.44 37.55 36.20 35.29 34.62 34.50 34.88 33.31 32.82 33.39 34.95 35.85 37.82 36.50 36.60 34.08 33.72 30.77 29.15 31.17 31.35 33.05 34.70 37.97 40.13 42.07 42.10 41.80 41.09 40.42 40.29 40.64 40.74 41.16 41.39 41.05 41.00 41.26
37.42 36.41 35.48 35.99 38.74 38.18 35.87 31.62 30.43 29.11 29.88 30.74 30.98 30.38 30.07 29.27 28.34 28.51 28.64 28.83 28.90 28.69 28.84 29.71 30.59 30.52 32.01 33.86 35.35 38.21 39.12 39.79 40.13 40.51 40.84 40.73 40.53 40.74
36.71 35.94 35.10 37.98 38.91 40.67 40.21 40.39 35.25 29.66 28.93 28.72 28.43 28.79 28.23 27.65 27.38 28.29 27.70 26.05 25.46 28.05 27.70 27.44 29.23 27.64 28.78 29.36 37.28 39.28 39.59 39.42 39.15 39.45 39.74 40.03 40.35 40.24
35.89 35.71 35.17 35.70 37.58 34.01 37.72 39.16 37.09 38.77 37.59 29.95 28.15 27.89 27.57 28.38 28.58 27.97 27.02 26.31 25.52 27.45 27.39 25.64 27.04 26.27 28.03 30.42 38.25 39.31 38.77 37.79 37.69 37.48 37.66 38.14 38.36 38.75
35.57 35.25 34.60 33.95 34.00 34.00 32.01 31.42 30.83 30.17 29.97 32.31 30.31 29.84 29.11 29.21 29.60 28.85 27.05 26.19 27.34 28.30 27.17 23.08 25.00 24.70 26.06 28.26 37.44 36.62 35.73 36.33 36.41 36.48 36.71 36.99 37.14 37.32
35.86 35.33 35.22 34.51 36.67 39.54 32.07 30.33 29.44 28.99 35.26 36.17 34.49 35.23 35.67 34.78 31.73 28.28 24.49 23.70 23.29 25.02 25.77 24.81 24.00 23.85 24.15 25.11 28.70 33.71 33.58 34.04 34.80 34.96 35.35 36.09 36.28 36.32
34.72 35.26 39.73 35.73 38.71 39.92 34.06 29.94 29.01 28.89 29.51 30.61 30.71 33.35 32.40 32.29 33.76 28.15 26.47 20.82 22.08 21.46 25.66 22.69 22.50 22.32 18.83 22.98 24.72 26.50 26.72 31.03 33.05 33.01 33.71 34.40 34.70 31.94
34.68 34.12 34.72 40.01 41.13 40.62 40.14 31.70 31.00 30.19 31.85 29.44 28.29 27.86 27.92 27.83 28.27 28.34 27.77 22.63 17.74 19.20 26.83 21.15 12.48 16.21 14.61 17.77 22.58 22.60 24.59 25.27 25.76 27.33 30.93 32.23 33.45 33.34
35.12 35.53 35.11 38.41 40.65 41.72 40.83 38.97 37.99 36.15 29.43 28.50 26.92 26.73 26.79 26.24 27.05 27.16 27.04 26.05 26.26 24.43 28.01 24.46 14.38 14.55 9.78 11.55 17.87 21.97 20.62 23.63 23.49 23.00 23.74 28.82 30.84 31.79
37.56 37.66 37.18 38.00 39.90 40.41 41.68 41.03 39.81 34.19 29.74 28.10 27.65 27.36 27.63 27.12 26.55 26.29 25.56 26.29 23.10 26.52 29.16 23.64 20.66 14.51 12.93 11.56 15.30 17.01 22.96 22.07 22.39 19.30 19.40 23.02 24.55 25.22
39.81 39.29 38.28 37.66 38.23 37.91 38.32 39.91 37.07 33.34 30.95 29.52 29.00 28.04 26.29 25.44 25.27 24.70 21.45 21.77 21.33 19.21 22.44 19.74 18.05 19.11 24.54 23.69 20.32 22.29 21.07 18.03 18.66 21.94 23.91 24.41 24.90 25.07
36.60 32.99 33.70 33.13 32.99 33.43 34.00 35.57 35.63 33.55 32.17 30.28 28.47 26.62 26.32 26.28 25.97 24.44 23.72 20.38 20.18 17.96 20.87 22.50 23.43 19.35 24.21 21.60 20.27 21.25 22.17 19.68 20.46 21.90 22.57 22.40 24.03 24.71
36.88 32.83 33.79 33.60 32.25 32.46 32.65 33.15 33.87 34.85 32.94 30.85 29.44 27.61 26.73 26.10 25.56 24.21 23.25 22.49 21.09 20.53 19.78 20.50 16.16 17.89 18.43 22.02 26.13 20.95 18.49 19.80 21.12 22.01 22.08 21.25 22.71 24.20
37.65 35.37 33.89 33.82 32.96 32.48 32.39 32.69 32.49 33.24 33.47 32.12 30.73 29.01 28.12 27.09 27.93 24.77 23.89 23.37 22.94 22.41 21.82 23.41 22.88 18.76 8.47 11.16 19.89 27.89 18.42 19.57 22.67 22.43 23.27 22.52 22.16 24.75
36.87 35.47 34.25 34.27 33.10 31.98 31.92 31.96 32.13 31.98 32.00 32.11 31.50 30.23 28.78 27.34 26.34 24.70 24.56 23.50 23.34 21.81 19.34 19.42 17.45 19.18 14.88 11.46 15.89 17.72 27.07 21.64 21.31 21.14 22.07 24.31 26.33 30.73
34.32 34.84 35.11 34.65 33.66 32.71 32.48 32.22 32.35 32.11 32.22 31.71 31.51 30.29 29.02 27.72 26.47 26.46 25.43 26.67 24.84 21.51 20.32 18.82 20.13 26.49 19.77 14.56 15.48 18.18 21.67 26.98 26.92 23.76 24.09 24.48 23.81 25.14
34.15 33.88 34.57 34.80 34.58 32.96 32.40 32.25 31.90 32.16 31.90 31.39 30.93 30.32 29.22 28.61 27.66 26.34 25.41 24.92 25.65 23.72 22.99 18.96 19.17 15.04 11.15 15.12 15.46 15.12 19.34 23.17 26.34 28.31 29.72 29.17 26.02 23.25
33.58 33.96 34.01 33.86 34.24 33.71 32.59 32.02 31.94 32.03 31.96 31.62 31.03 30.19 29.41 27.94 28.49 26.94 25.78 25.19 24.60 22.94 22.56 20.61 17.59 15.72 14.79 16.37 19.89 16.30 16.72 19.76 21.31 22.17 24.41 30.15 31.96 32.66

GFSNE_sfc_wetblb_162.txt.gz
Wetbulb
49.64 47.44 45.18 46.15 46.73 46.15 46.92 46.54 48.04 44.07 44.28 47.81 46.84 46.02 45.67 44.43 42.66 41.61 41.26 46.23 48.38 49.24 49.03 48.90 48.94 49.41 49.76 50.22 50.81 51.19 51.53 51.44 51.52 51.80 51.72 51.45 51.71 51.76
44.95 43.90 43.62 43.87 43.97 43.56 43.54 44.26 47.36 47.41 44.30 46.98 44.46 44.92 44.19 43.72 43.05 40.42 40.91 42.62 45.92 47.57 47.02 46.50 46.57 46.65 46.87 47.34 48.22 48.68 48.16 48.06 48.66 49.34 49.52 49.39 49.43 49.33
42.29 41.86 41.50 40.72 40.52 40.48 40.67 40.38 40.53 42.06 44.56 44.24 43.33 42.08 42.01 40.95 40.30 39.35 39.32 40.04 40.16 45.75 45.81 45.39 45.18 45.07 45.34 45.63 46.05 45.60 45.97 46.19 46.31 46.55 46.63 46.95 47.22 47.66
40.88 40.45 39.85 40.71 37.98 37.82 38.14 37.81 37.44 37.82 39.42 41.19 42.99 41.24 37.33 36.60 36.26 35.64 37.48 40.13 37.08 41.74 42.83 43.53 43.51 43.75 44.09 43.86 43.55 43.63 43.43 43.72 43.82 44.10 44.80 45.43 45.96 46.18
39.65 39.31 38.90 37.17 35.97 35.76 35.93 35.66 35.13 36.77 36.58 39.50 40.91 38.73 37.48 35.97 37.29 37.70 36.01 35.70 35.07 37.08 39.70 40.70 41.76 42.77 43.60 42.88 42.57 42.09 41.97 42.08 42.19 42.78 43.23 42.80 42.83 43.28
39.30 38.60 37.53 36.02 34.72 34.07 34.01 33.37 32.76 31.39 32.71 33.99 35.21 35.11 33.40 33.45 33.23 31.71 29.90 30.42 30.64 32.38 34.14 38.09 40.59 41.45 41.76 40.95 40.22 39.94 40.25 40.98 41.63 41.94 41.18 41.03 40.77 41.08
37.87 37.50 36.73 36.79 38.57 36.96 34.36 32.13 30.01 28.51 28.53 29.15 30.71 30.74 30.38 30.43 29.79 28.84 28.81 28.66 29.20 28.14 28.42 29.28 30.12 29.44 30.57 32.54 34.79 38.81 39.73 40.56 40.71 40.41 40.54 40.59 40.59 40.70
37.82 36.64 36.20 39.02 38.89 41.37 41.58 41.09 34.22 29.21 27.94 27.51 27.24 27.94 28.16 27.81 28.39 29.29 28.52 26.83 25.86 28.11 27.25 27.55 28.87 27.48 28.33 28.99 38.20 39.81 40.11 39.19 39.16 38.92 38.42 38.55 38.95 39.40
37.31 36.28 35.85 36.91 38.09 34.51 39.45 40.61 40.04 40.47 38.04 29.71 27.99 27.51 27.13 28.33 28.31 27.69 27.58 26.73 25.38 26.97 27.08 25.86 26.75 26.52 27.78 29.86 38.41 39.68 38.00 37.54 37.22 37.40 37.58 37.71 38.07 38.25
37.26 36.46 36.02 35.51 35.02 34.64 32.92 32.02 32.48 31.15 31.01 31.92 30.44 29.32 28.92 28.88 29.63 29.10 27.66 26.58 27.51 28.64 27.48 23.30 24.89 24.46 25.84 27.99 36.42 37.08 35.67 36.18 35.72 36.12 36.41 36.70 36.91 37.24
36.39 35.97 36.15 35.61 37.90 40.81 33.60 31.62 30.70 30.52 34.43 37.41 36.33 35.43 35.74 35.94 32.34 28.55 25.52 24.82 24.40 25.29 26.25 25.30 24.68 24.69 24.63 25.31 29.25 34.32 33.51 33.99 34.64 34.78 35.14 35.32 35.52 35.84
35.35 35.87 40.00 37.54 39.52 40.96 37.03 32.29 30.89 31.02 29.04 31.29 31.39 33.95 34.63 33.51 35.54 28.74 26.86 23.54 24.44 23.61 26.21 23.87 23.81 22.68 20.85 23.97 25.35 26.93 27.14 30.99 32.76 32.67 33.28 33.82 34.16 30.53
33.94 33.78 34.91 39.80 41.98 41.10 41.55 33.46 33.73 32.72 32.27 30.44 30.49 30.32 28.78 28.55 28.77 28.23 28.18 26.01 21.31 21.61 28.37 22.20 14.81 22.16 19.32 19.40 23.12 23.59 24.77 25.43 25.77 27.17 30.59 31.90 33.21 32.73
35.00 34.63 34.38 39.01 40.18 41.69 41.37 41.08 39.27 37.53 30.19 30.22 29.28 28.52 28.42 27.56 27.77 28.14 28.15 27.00 26.61 25.56 28.44 25.38 17.21 20.35 12.58 13.78 18.86 22.83 22.61 23.89 24.66 23.79 24.18 28.49 30.66 31.45
36.70 37.37 39.62 39.23 39.48 39.67 41.40 41.97 41.84 35.97 30.63 29.35 28.96 28.95 29.14 28.55 28.12 27.39 27.22 27.52 23.93 26.98 29.23 25.02 23.31 19.42 18.61 14.45 18.27 19.20 23.88 22.66 23.38 21.06 21.03 22.25 23.93 24.70
36.56 34.58 38.43 40.16 38.70 36.96 37.41 38.12 38.57 36.05 32.33 31.31 30.00 29.83 27.69 26.24 25.69 23.87 22.78 23.26 20.56 22.02 24.98 23.45 19.82 20.76 22.61 24.71 23.88 22.58 22.34 18.52 19.92 21.50 22.82 23.64 24.55 24.96
37.84 33.33 32.34 32.05 31.74 32.12 33.02 33.68 34.78 34.60 33.32 31.47 29.59 27.66 26.69 26.88 26.58 25.38 24.08 22.14 21.78 20.75 21.92 24.18 25.18 24.07 26.28 25.24 20.97 21.90 21.33 19.73 20.70 21.52 19.66 21.26 23.62 24.70
39.10 34.54 34.40 33.86 33.60 33.31 32.38 32.54 33.67 35.30 33.80 31.87 30.80 29.51 28.08 26.82 26.10 24.74 24.01 23.30 22.03 22.15 21.85 22.81 22.33 22.92 22.59 24.34 26.31 21.05 19.10 19.22 18.53 20.70 20.59 15.55 20.87 23.60
37.63 35.84 34.63 34.42 34.26 33.85 33.03 32.39 32.50 34.02 34.23 32.38 31.73 30.60 29.37 27.79 28.14 25.14 24.38 24.10 23.54 23.50 22.65 23.47 22.79 20.51 17.27 16.91 22.00 28.49 20.90 17.03 17.69 20.69 21.89 20.77 20.75 23.65
35.41 35.38 35.01 34.71 34.50 33.81 32.77 32.37 32.52 32.74 32.58 32.27 32.03 31.40 30.11 28.86 27.99 26.09 25.37 24.58 24.32 23.55 22.83 23.07 22.41 20.38 17.64 16.59 17.39 19.26 26.62 16.80 17.75 19.16 20.35 23.16 25.25 29.95
33.61 34.11 34.70 34.84 34.50 34.05 32.96 32.69 32.65 32.41 32.54 32.24 32.11 31.86 31.18 29.91 28.54 27.07 26.44 28.18 26.59 23.67 22.00 21.94 23.18 27.19 21.00 19.97 18.26 17.85 20.86 26.43 26.07 20.90 21.93 23.17 23.23 23.68
32.48 32.75 33.75 34.13 34.32 34.23 33.22 32.61 32.22 32.41 32.34 32.03 31.98 31.86 31.00 30.04 28.58 27.52 27.12 26.93 26.64 23.75 23.69 24.29 22.83 21.74 19.89 19.61 16.57 12.97 17.91 22.04 25.55 27.61 29.05 28.13 23.80 22.06
32.49 32.88 33.06 33.60 33.85 33.76 33.17 32.42 32.13 32.26 32.21 32.24 31.84 31.30 30.34 28.74 29.48 28.64 27.61 27.28 26.64 24.05 23.53 22.13 22.44 20.91 20.19 18.78 17.10 12.65 13.13 18.26 20.31 21.19 23.25 29.13 31.16 31.97

GFSNE_sfc_wetblb_165.txt.gz
Wetbulb
51.23 49.95 49.16 49.95 50.06 50.24 49.63 49.01 47.46 43.44 44.82 49.69 51.04 50.00 49.11 46.81 45.65 43.43 43.94 45.07 48.22 48.55 48.21 48.31 48.32 48.97 50.06 51.41 52.06 52.26 52.39 52.69 52.91 52.90 52.97 53.13 53.14 53.08
48.90 48.43 48.39 48.33 47.93 47.95 48.02 47.94 47.87 46.94 44.37 49.42 50.52 49.66 48.40 46.24 44.78 43.41 43.08 43.38 46.24 47.49 46.87 46.57 46.47 47.06 47.86 48.67 48.38 48.55 48.95 49.46 50.10 50.58 50.79 50.43 50.12 49.92
47.19 46.69 46.50 46.25 45.67 45.25 45.41 45.58 45.56 45.69 44.42 47.41 48.42 48.32 47.00 45.56 44.38 42.77 42.30 43.61 44.70 44.81 45.33 44.89 45.04 45.48 45.66 45.76 46.18 45.95 46.13 46.73 47.23 47.83 48.15 48.28 48.75 49.17
45.79 45.29 45.10 44.68 44.44 43.66 43.23 43.36 43.66 44.09 43.54 42.52 44.43 46.12 44.95 43.29 42.33 41.26 40.12 41.08 40.27 41.11 42.51 43.66 43.41 44.04 44.36 44.16 43.96 43.98 44.05 44.15 44.69 45.57 46.69 46.95 46.90 46.59
45.08 44.61 44.53 44.01 43.34 42.76 41.60 41.14 41.42 40.59 41.30 40.83 41.27 44.01 44.34 41.66 41.37 41.02 39.86 40.12 37.98 36.88 40.09 41.97 43.33 43.92 43.39 43.06 42.55 42.28 42.08 42.63 43.58 43.53 43.09 43.14 43.19 43.72
44.06 43.98 43.69 43.02 42.60 42.02 40.20 39.74 39.03 38.42 37.95 38.34 39.24 40.27 40.89 40.65 38.30 37.79 37.76 36.64 37.56 36.09 35.86 38.81 40.18 41.30 40.82 39.78 39.73 39.71 40.77 41.92 42.60 41.99 41.77 41.38 41.19 41.51
42.84 42.74 42.63 42.15 41.39 41.33 38.85 38.37 36.68 35.81 35.22 34.66 34.65 36.19 36.90 36.88 37.07 36.68 35.15 35.01 35.98 35.82 35.75 36.64 37.10 36.63 36.15 35.06 36.26 38.83 40.41 41.21 40.82 40.87 40.96 40.86 40.73 41.00
41.64 41.52 41.52 41.17 41.54 42.57 42.54 41.11 38.02 35.31 34.05 33.28 33.89 32.99 34.19 34.67 34.51 34.42 33.76 33.14 33.14 33.91 33.69 34.34 35.61 35.53 34.88 35.38 38.60 40.35 40.69 39.66 39.26 38.26 38.20 38.38 38.60 38.84
41.35 40.86 40.21 39.86 40.63 39.87 41.75 42.87 42.24 41.53 39.13 35.31 33.55 33.59 33.17 34.33 34.24 33.03 32.95 33.03 32.60 31.90 31.81 31.76 32.65 33.28 33.98 33.52 38.01 40.68 38.75 38.19 37.20 36.86 37.25 37.49 37.72 37.93
41.86 41.32 40.74 40.73 39.87 39.08 38.01 37.64 38.44 38.64 39.74 39.23 36.90 36.64 35.43 35.39 34.63 34.53 34.22 33.03 32.58 32.77 32.57 31.36 31.53 31.41 32.31 33.72 36.23 39.00 36.76 36.86 35.45 35.71 36.24 36.47 36.74 36.88
40.91 40.75 40.01 39.70 39.71 41.14 37.46 36.89 36.43 36.36 37.42 38.48 37.16 36.56 37.15 37.12 35.07 33.44 31.78 30.99 30.95 31.40 32.28 32.03 31.39 30.75 30.69 31.53 35.48 37.37 35.32 35.28 34.79 34.74 34.97 35.62 35.47 35.78
39.62 38.97 39.86 40.53 40.15 41.04 40.52 37.79 35.77 36.84 34.96 34.17 36.24 37.49 37.59 37.42 37.09 33.92 33.08 31.07 30.64 30.16 31.67 30.97 29.90 29.79 29.91 30.17 31.16 33.39 33.50 32.86 33.60 32.89 33.53 34.07 34.06 34.35
37.91 38.06 38.14 39.44 40.93 42.14 41.76 39.77 37.77 38.85 35.95 34.62 34.44 34.93 34.50 34.17 34.88 34.59 32.15 31.63 30.73 30.29 31.84 30.92 28.57 28.55 28.00 28.11 29.11 29.99 30.41 30.91 31.05 30.89 31.57 32.29 33.26 33.51
38.37 39.12 38.70 39.11 40.05 40.63 41.21 42.23 41.33 39.79 34.93 34.16 32.50 32.54 32.42 31.89 32.44 31.99 31.58 31.06 30.89 30.50 31.80 29.67 29.21 28.52 27.74 27.54 27.90 29.43 29.87 30.31 29.86 29.94 29.77 30.38 31.69 32.13
39.22 39.30 40.45 41.09 41.33 40.62 40.61 41.25 42.01 40.72 35.32 32.48 32.20 32.16 32.63 34.06 31.90 31.08 30.47 30.18 29.70 29.94 30.80 29.54 29.14 26.86 26.92 27.69 26.96 27.74 28.16 29.58 29.58 28.18 28.87 28.28 28.73 29.16
38.09 38.07 38.24 39.33 39.91 40.05 39.05 38.66 38.84 40.00 36.29 34.80 33.70 33.81 32.66 31.19 30.41 30.75 29.01 28.60 28.04 27.47 28.33 29.33 28.52 27.26 26.65 26.82 26.97 26.53 27.71 25.87 28.53 28.38 28.03 28.26 29.18 29.32
40.80 38.19 36.86 35.92 35.42 35.22 34.72 35.41 36.46 36.41 36.34 34.98 33.87 31.89 30.71 30.06 29.86 29.16 28.57 27.69 27.39 26.12 26.13 26.79 27.77 27.89 28.24 28.31 25.58 26.22 25.78 25.73 26.93 26.58 26.12 25.83 27.61 28.53
38.57 36.93 36.15 35.74 35.12 35.06 34.13 34.06 33.97 35.53 35.46 34.78 33.51 32.94 32.17 30.64 30.05 28.45 28.42 26.93 26.57 26.39 25.50 26.15 25.73 25.79 25.73 26.85 29.10 26.11 25.92 24.72 26.49 26.88 26.01 24.21 25.05 29.11
37.89 36.60 35.87 35.64 35.11 34.36 34.32 33.94 33.43 34.16 34.72 33.96 33.25 32.77 32.39 31.54 30.92 28.42 27.45 27.08 26.70 27.23 26.61 26.12 25.20 24.28 22.35 22.49 26.18 29.99 25.72 25.69 25.14 24.54 25.33 24.99 24.86 27.28
35.38 34.39 34.55 35.21 35.12 35.06 34.58 34.11 33.35 33.36 33.11 33.20 32.83 32.91 32.56 31.88 30.53 28.56 27.81 27.17 27.26 26.92 26.04 25.59 25.13 24.78 23.35 23.07 23.08 25.50 27.30 25.33 24.42 23.71 24.32 26.47 27.95 29.94
33.74 33.28 33.63 34.33 34.58 34.68 34.50 33.83 33.12 32.90 33.00 32.63 32.53 32.43 32.44 31.94 31.04 30.39 28.99 29.32 28.74 27.19 25.36 25.06 26.39 28.75 26.14 23.83 21.63 22.54 24.96 26.61 26.96 25.72 25.75 24.69 24.60 26.72
32.98 33.00 33.33 33.50 33.77 34.14 33.97 33.45 32.76 32.69 32.59 32.69 32.47 32.44 32.56 32.31 31.66 30.71 29.24 28.95 29.26 27.46 27.51 27.48 27.29 26.64 23.33 22.75 22.42 21.54 22.09 24.98 26.97 27.93 28.65 28.30 26.20 24.61
32.67 32.54 32.87 33.20 33.27 33.46 33.65 33.20 32.69 32.63 32.62 32.54 32.44 32.62 32.48 31.71 32.07 31.06 29.96 29.92 30.02 26.67 25.98 24.79 24.60 24.81 24.13 23.41 22.75 21.81 21.50 22.47 24.18 24.99 27.10 28.88 30.55 31.42

GFSNE_sfc_wetblb_168.txt.gz
Wetbulb
52.92 52.47 51.38 51.31 51.39 51.24 50.20 49.68 47.32 44.36 45.80 49.58 49.90 53.88 53.64 52.08 47.09 47.92 48.18 45.31 48.13 48.29 47.88 47.71 48.32 49.53 50.40 50.62 51.38 52.15 53.07 53.52 53.83 54.26 54.33 54.36 54.29 54.21
52.23 51.85 51.83 52.02 51.80 51.75 51.28 50.47 49.12 47.03 44.61 49.75 50.62 51.36 51.77 51.40 48.73 47.74 46.46 44.09 46.09 46.74 46.41 45.89 46.44 47.27 47.70 48.36 48.96 49.45 49.97 50.48 51.01 51.49 51.63 51.48 51.38 51.20
50.61 50.70 50.56 51.15 50.47 50.41 49.78 48.92 48.33 47.33 44.44 48.19 49.64 49.32 49.55 50.43 49.64 47.93 45.66 46.49 47.31 43.27 44.43 44.80 44.92 45.39 45.64 46.14 45.96 46.34 46.84 47.66 48.44 49.02 49.33 50.06 50.25 49.99
48.15 48.89 49.22 49.48 49.38 49.67 48.75 47.30 46.87 47.79 45.69 44.31 48.13 47.49 46.34 49.28 47.77 46.25 44.98 43.88 44.04 41.06 41.94 42.99 43.18 44.39 44.14 44.18 44.20 44.32 44.25 45.01 46.18 47.22 47.53 47.31 47.06 46.92
48.10 47.50 47.61 48.44 48.39 48.88 48.23 46.65 45.78 45.03 45.57 44.79 45.11 47.17 46.38 47.29 45.84 46.02 44.50 43.71 41.89 37.35 40.13 43.01 43.77 43.51 43.26 42.83 42.42 42.11 42.50 43.72 44.10 43.63 43.53 43.42 43.81 44.11
48.27 47.66 47.26 46.95 46.97 47.78 47.52 46.37 44.48 43.28 43.08 42.04 41.94 42.32 43.06 43.93 42.57 41.74 42.41 41.54 40.92 39.09 37.28 40.14 41.59 41.87 40.77 39.67 39.46 39.60 41.10 42.63 42.54 42.22 41.94 41.51 41.45 41.81
48.20 47.33 47.19 46.23 45.01 46.36 45.65 45.33 43.36 41.21 40.35 39.24 38.41 38.45 38.55 39.07 38.84 41.08 38.48 39.63 39.08 38.79 38.63 37.95 38.92 39.02 38.83 36.56 37.09 38.58 40.80 41.44 41.03 41.18 40.81 40.35 40.30 40.38
45.96 47.00 46.92 43.73 43.93 44.44 44.64 44.03 43.87 41.55 39.84 38.78 38.13 37.34 38.13 38.62 39.01 38.03 38.12 36.98 36.55 38.74 37.76 38.07 37.94 38.77 38.91 38.03 38.52 40.29 41.30 40.38 39.47 38.43 38.32 38.62 38.74 39.00
45.59 45.59 45.35 44.73 43.52 44.52 44.45 44.34 43.95 42.97 41.73 41.22 38.65 38.58 37.62 38.39 38.30 37.61 37.31 37.12 37.07 37.50 36.27 36.01 37.20 36.66 38.93 35.97 38.22 41.00 40.43 39.35 37.70 36.82 37.30 37.63 37.89 38.10
46.57 46.23 45.75 45.80 45.71 43.74 43.34 42.80 42.90 43.62 43.45 42.61 41.01 40.48 40.20 39.57 38.31 38.09 37.80 37.71 37.44 36.49 36.18 33.80 36.97 35.90 37.71 37.52 38.04 39.68 39.47 38.43 36.94 35.69 36.16 36.52 36.94 37.09
45.51 45.52 44.97 44.54 44.41 43.14 41.77 41.21 41.10 41.36 42.17 42.53 42.86 42.11 40.40 38.95 38.29 37.32 35.02 33.98 34.09 35.36 35.98 34.99 35.74 34.83 35.00 35.68 38.67 38.69 38.05 37.45 36.82 36.03 35.68 35.64 36.29 36.37
43.66 43.47 42.19 41.96 43.15 41.77 41.44 41.80 40.41 41.16 41.61 39.71 39.23 39.87 39.18 39.03 38.65 37.45 37.21 34.51 34.31 33.39 35.96 33.73 33.67 33.40 33.52 34.07 34.88 37.77 37.67 36.11 35.96 35.89 34.66 34.72 34.99 34.83
41.57 42.02 42.90 41.20 41.00 41.58 42.16 42.11 41.52 42.93 41.65 40.45 39.54 39.26 38.97 38.48 38.20 37.94 36.86 35.84 35.63 34.20 35.13 34.85 32.75 32.38 31.77 32.41 32.95 33.97 35.37 35.33 34.61 34.16 33.27 33.77 34.22 34.25
41.61 42.59 42.93 41.31 40.62 41.02 41.55 42.26 42.78 42.85 41.35 39.58 38.03 37.22 37.03 36.95 36.86 37.44 36.72 35.16 35.24 34.09 34.52 34.50 32.52 32.84 32.29 31.52 30.94 32.24 32.77 33.11 32.89 32.24 32.92 33.02 33.16 33.96
42.26 41.97 41.10 41.16 41.40 41.81 42.18 41.83 41.47 41.28 39.74 37.10 36.87 37.01 37.59 38.37 36.91 35.30 34.11 33.17 32.96 32.44 32.68 32.61 32.66 31.66 30.96 30.96 31.10 30.76 30.18 32.60 32.01 31.36 31.74 31.38 30.82 32.09
41.29 42.03 41.75 40.60 40.38 40.40 40.20 40.93 40.13 40.36 39.54 37.41 36.29 38.76 38.02 35.62 34.18 34.87 32.68 31.16 30.85 31.39 31.65 32.04 31.57 30.84 29.65 29.67 29.96 29.05 30.96 29.05 31.00 30.93 30.71 30.20 30.74 31.54
39.57 39.58 39.33 38.32 37.42 37.48 37.52 36.67 36.16 35.95 35.70 37.47 36.40 35.57 34.41 34.54 33.67 34.17 32.93 32.16 29.93 30.39 29.93 29.36 29.86 30.43 30.20 30.04 28.31 29.22 29.44 29.29 29.95 29.52 28.14 27.39 29.16 30.83
38.42 36.87 37.13 38.02 37.80 36.62 35.83 35.68 35.48 35.71 35.09 35.10 34.63 34.13 33.02 32.64 32.71 32.17 32.19 31.21 30.27 31.05 30.51 29.78 28.61 27.77 27.63 28.95 30.82 28.61 28.73 29.12 28.90 28.80 28.18 26.30 27.18 31.00
36.87 35.76 34.76 34.57 34.78 35.45 36.07 35.64 34.92 34.89 34.02 33.78 34.18 33.74 32.95 32.58 32.69 31.91 31.38 30.89 30.26 30.85 30.46 30.36 28.47 27.67 25.86 25.88 29.16 31.60 29.09 29.13 27.95 26.51 27.03 27.13 26.69 28.88
37.40 35.09 34.43 34.61 34.61 34.20 35.35 34.91 34.69 34.03 33.33 33.27 33.18 33.75 33.25 32.51 32.04 32.33 31.66 30.34 30.11 30.27 30.16 30.01 28.69 28.07 27.04 28.06 27.78 28.53 31.01 28.27 26.88 25.24 25.89 28.00 29.68 31.70
35.31 34.10 33.80 33.56 33.57 33.90 34.30 34.73 34.03 33.47 33.29 32.68 32.71 32.73 32.84 32.42 32.23 32.78 32.25 31.48 31.13 30.49 29.01 29.13 29.46 31.39 30.04 27.07 24.24 25.32 28.02 28.61 27.92 26.31 26.76 26.12 26.37 27.89
35.52 34.30 33.92 33.79 33.84 34.24 34.07 33.84 33.38 33.15 32.78 32.77 32.73 32.69 32.73 32.64 32.23 32.70 32.54 31.24 31.05 30.90 30.53 31.37 30.09 29.58 25.96 24.67 24.84 25.43 25.24 26.97 28.25 28.93 29.18 28.42 27.12 25.98
36.54 34.89 34.14 33.73 33.84 34.04 33.73 33.16 32.98 32.91 32.89 32.66 32.57 32.69 32.73 32.10 32.57 33.09 33.29 32.00 31.80 30.92 30.12 27.57 27.90 27.66 25.96 25.52 25.24 24.48 24.57 24.55 25.67 26.04 28.77 31.22 30.56 30.75

GFSNE_sfc_wetblb_171.txt.gz
Wetbulb
52.60 52.72 50.61 50.54 50.88 50.84 50.69 49.58 47.12 42.60 44.04 49.59 49.84 53.80 52.18 51.51 50.29 47.63 48.73 45.60 47.67 48.06 47.68 47.23 47.82 48.92 49.55 50.52 51.26 52.34 53.39 54.24 54.74 55.09 55.19 55.19 55.42 55.59
51.10 51.74 51.92 51.32 50.59 50.53 50.13 49.57 48.82 45.87 42.36 48.23 49.63 51.41 50.56 50.31 49.93 47.31 47.85 44.33 45.66 45.74 45.85 45.74 46.21 46.84 47.57 47.66 48.24 49.04 49.94 50.82 51.48 52.17 52.47 52.63 52.67 52.56
50.06 49.85 50.18 51.23 51.02 50.20 49.76 49.27 48.53 48.08 43.97 45.65 48.29 50.16 48.49 47.95 48.94 48.59 47.30 45.58 45.82 43.16 43.90 44.73 44.69 45.29 45.77 45.86 46.11 46.25 47.08 48.32 49.32 50.22 51.13 51.00 50.97 51.07
49.19 48.73 48.35 49.05 49.54 50.16 49.70 48.54 47.83 47.66 45.95 43.53 45.85 47.19 47.61 47.15 47.90 46.10 46.32 44.54 43.13 42.02 42.05 42.87 43.42 44.22 44.14 44.11 44.10 44.11 45.07 46.54 47.19 47.04 47.47 47.64 48.00 48.27
49.33 48.68 48.15 48.02 47.59 48.61 48.74 48.04 47.47 46.40 45.26 44.10 43.31 45.79 46.21 46.11 45.12 44.69 44.01 43.28 43.44 38.70 40.01 42.01 43.98 43.60 43.26 42.86 42.35 42.33 43.41 44.40 43.98 43.75 43.46 43.88 44.27 44.66
49.31 49.07 48.41 47.66 46.95 47.09 47.29 47.44 46.88 45.10 43.66 42.37 41.93 41.58 41.88 42.61 41.79 39.53 39.33 41.99 40.23 40.55 38.24 39.23 41.73 42.53 41.68 40.41 39.73 39.63 41.67 43.00 42.61 42.63 42.21 42.01 42.19 42.81
48.51 48.83 48.33 47.28 45.93 46.65 45.76 45.70 45.23 42.95 40.79 39.35 38.44 38.27 37.80 37.46 37.54 38.78 37.04 37.38 38.52 38.04 36.44 36.23 36.93 38.09 38.19 38.33 37.66 38.07 40.58 41.64 41.44 41.35 40.38 40.08 39.87 40.08
46.36 47.16 47.83 45.25 45.20 45.93 46.36 46.04 45.11 42.74 39.85 38.57 37.24 35.90 36.52 37.04 37.32 36.06 35.41 34.46 33.35 36.73 34.47 34.98 35.14 35.36 36.73 35.76 39.06 40.23 41.20 41.32 40.06 38.59 38.46 38.60 38.81 39.11
46.03 46.02 45.73 45.85 44.90 44.35 45.56 45.37 45.36 45.47 44.64 41.62 38.68 38.13 36.95 37.43 36.76 34.94 34.95 34.35 33.93 34.06 33.07 31.95 34.15 33.19 36.25 36.20 37.83 40.83 41.63 40.70 38.88 37.12 37.17 37.71 38.07 38.31
46.09 46.35 45.97 45.67 45.95 44.71 43.35 42.81 43.06 43.50 43.93 43.21 41.36 40.65 39.85 39.08 36.99 36.13 34.67 34.21 35.01 34.34 33.11 29.95 33.16 31.55 34.30 34.14 38.79 40.93 41.52 40.13 39.41 36.75 36.21 36.67 36.93 37.29
44.51 44.87 44.87 44.46 45.25 44.70 42.30 40.75 41.10 41.46 43.45 43.87 44.34 44.10 43.95 41.51 38.45 35.14 32.78 31.44 31.28 32.67 32.86 31.18 31.98 30.81 30.98 31.43 34.33 39.87 40.85 39.83 39.27 37.73 36.83 36.60 36.33 36.78
42.92 43.33 43.65 42.60 43.19 42.86 40.98 40.22 39.08 39.96 40.58 38.84 38.26 39.42 41.35 40.05 40.27 36.50 34.15 32.16 31.24 30.64 33.10 30.61 30.34 29.74 28.95 30.58 31.28 34.37 36.37 38.70 38.34 38.06 37.60 36.68 35.80 32.37
41.24 41.58 42.65 43.07 41.82 41.80 42.10 40.82 40.58 42.02 41.26 39.01 38.23 37.70 37.06 37.18 36.61 36.45 35.65 33.37 31.95 31.22 33.40 32.47 30.30 29.88 27.26 27.72 29.70 30.74 32.99 33.35 33.22 33.81 36.38 35.20 35.10 34.09
40.43 41.71 42.30 41.94 41.59 41.71 41.57 42.16 43.03 42.53 39.49 38.73 37.20 35.52 34.69 34.30 34.43 35.32 35.19 34.11 34.12 32.93 32.82 31.95 30.47 31.66 28.03 25.86 26.21 28.82 28.75 29.33 30.30 29.72 31.24 33.23 34.66 34.96
41.29 41.62 41.75 41.74 42.02 41.88 42.34 42.61 42.45 39.81 38.27 36.27 35.74 34.86 35.14 34.42 33.42 32.55 31.60 31.70 30.73 30.91 31.61 31.98 31.36 28.94 27.37 26.76 26.09 27.09 26.12 29.03 29.99 29.70 29.95 29.61 28.72 28.63
40.37 40.11 40.45 41.18 41.29 40.44 40.64 40.69 40.30 38.79 37.36 36.50 35.63 35.90 34.83 34.25 33.65 33.29 31.98 30.18 28.03 29.25 30.99 31.57 30.23 29.70 26.83 28.48 26.81 26.51 28.03 24.97 28.65 28.92 28.75 29.11 29.95 29.60
39.42 38.68 37.50 36.98 37.16 37.24 36.70 36.51 36.31 35.13 34.07 34.79 34.62 34.33 34.01 33.24 32.78 33.69 32.41 31.45 28.30 27.71 29.26 29.14 30.40 29.53 28.65 25.75 25.57 28.31 27.61 27.97 29.68 28.57 27.96 26.60 28.52 29.16
38.22 36.27 35.53 35.39 34.52 35.05 35.10 35.06 34.96 35.56 34.37 33.82 33.86 34.05 33.39 32.48 32.16 32.07 31.93 31.24 29.59 29.86 30.05 29.35 27.67 26.41 26.67 27.72 30.47 27.36 26.26 26.25 28.61 27.17 26.67 22.77 25.66 29.05
37.43 36.12 34.76 33.97 33.80 33.75 33.80 33.80 33.87 34.94 33.82 33.25 33.13 33.27 33.09 32.51 32.66 31.72 31.12 30.80 29.86 30.56 30.75 29.90 28.01 25.98 24.64 23.45 27.47 32.22 26.80 28.32 27.41 25.58 25.60 25.37 24.95 27.36
37.54 35.88 34.44 34.20 34.26 33.56 33.50 33.48 33.74 34.16 33.86 33.26 32.96 32.96 32.62 32.39 31.87 31.74 31.50 30.39 29.71 30.22 30.26 29.91 28.17 27.44 26.79 26.21 26.93 27.43 31.77 27.42 26.44 25.17 24.29 26.42 27.89 31.41
35.59 35.61 34.88 34.44 33.88 33.33 33.21 33.37 33.33 33.33 33.54 32.87 32.71 32.60 32.65 32.26 31.86 32.14 32.17 32.99 31.71 29.96 28.23 28.51 29.78 32.97 29.58 26.98 23.11 23.88 26.90 30.43 29.46 24.69 24.41 23.62 23.84 25.89
34.58 34.77 35.03 33.99 33.85 33.42 33.23 33.23 32.98 33.06 32.97 32.86 32.68 32.58 32.62 32.38 31.95 32.06 31.95 31.43 31.08 30.71 29.64 31.65 30.42 29.59 25.20 24.81 23.88 24.03 24.79 27.05 29.17 29.57 29.51 27.85 22.61 20.41
33.46 33.83 34.96 34.68 34.33 33.77 33.41 32.93 32.61 32.52 32.83 32.75 32.57 32.51 32.50 31.79 32.17 31.88 31.74 32.04 31.13 30.70 30.21 27.64 27.81 27.21 25.70 25.50 24.90 23.35 23.74 24.62 25.08 25.56 27.03 31.28 31.71 31.54

GFSNE_sfc_wetblb_177.txt.gz
Wetbulb
45.28 45.67 46.57 47.16 47.07 46.66 46.59 47.86 45.67 41.43 39.70 41.59 43.11 46.86 47.55 47.07 47.44 46.29 45.59 47.16 48.10 48.20 47.86 47.05 46.87 47.36 48.02 48.50 49.04 50.56 51.92 53.39 54.67 55.46 56.01 56.39 56.77 57.42
46.15 45.10 45.72 46.82 46.81 46.36 46.18 46.64 48.32 45.97 42.07 42.06 42.39 42.90 44.50 46.21 46.74 45.97 45.60 46.86 46.95 47.93 46.81 45.63 45.47 45.95 46.66 46.89 47.06 48.46 50.33 52.05 52.58 53.27 54.01 54.56 55.07 55.78
45.76 45.00 44.91 45.45 45.82 45.76 46.20 47.90 46.68 46.47 44.21 45.32 43.11 43.07 42.82 42.95 44.02 44.30 44.92 42.98 41.94 46.93 45.85 44.69 44.38 44.64 45.53 45.29 45.19 46.88 48.92 49.44 50.06 50.49 51.22 51.72 52.30 52.78
44.20 44.43 44.61 46.22 43.89 44.65 44.87 44.66 44.94 44.33 43.73 42.90 42.65 41.04 41.40 42.16 42.17 41.42 43.60 44.30 40.80 43.80 45.40 44.14 43.72 44.50 44.73 44.15 43.35 44.56 45.67 46.17 46.47 47.47 47.93 48.47 49.26 49.98
42.64 43.23 43.87 43.83 43.08 42.50 42.92 43.55 43.61 45.07 42.44 43.04 42.99 40.28 40.24 40.29 40.06 39.87 39.77 38.83 40.57 43.49 45.62 44.15 43.13 44.74 44.50 43.47 42.09 41.50 43.84 43.70 43.70 43.87 44.31 44.96 45.78 46.91
41.97 42.45 43.04 43.29 43.15 42.42 42.08 42.01 42.90 42.14 40.79 40.30 40.02 38.33 37.88 38.40 36.40 35.55 34.89 35.36 36.55 39.68 40.95 40.24 40.69 43.09 44.58 43.96 42.27 40.08 41.02 42.82 42.84 42.80 42.54 42.12 42.20 43.09
40.48 41.50 42.30 43.24 44.63 45.15 43.61 41.10 40.59 39.70 39.18 38.76 36.59 34.88 34.34 34.07 33.58 33.62 32.91 33.04 33.13 33.80 33.27 33.32 33.19 33.59 36.23 42.18 40.99 40.34 39.61 42.14 42.00 41.45 40.55 40.21 40.25 40.63
39.21 40.46 41.47 42.82 43.41 46.32 47.27 46.80 43.00 38.82 37.07 35.79 34.61 34.42 33.80 33.74 33.50 32.56 31.57 30.15 29.05 31.95 31.14 30.49 31.96 31.41 32.70 34.03 39.46 40.49 39.63 40.81 42.12 40.15 38.99 38.90 39.00 39.21
38.38 39.23 40.58 42.81 43.32 41.79 43.68 45.64 46.08 46.70 45.32 38.49 37.83 35.60 34.62 34.48 33.91 30.97 30.29 30.31 29.99 31.41 30.30 28.75 29.63 29.94 31.22 34.21 40.52 41.06 40.77 41.12 42.13 39.75 38.02 37.79 37.89 38.19
38.08 38.48 38.84 39.69 40.92 41.71 40.37 38.88 38.74 39.07 40.43 42.38 40.42 40.61 37.16 35.91 34.34 33.36 31.78 30.24 30.40 30.83 29.70 27.10 27.78 28.08 29.17 30.36 38.93 41.14 40.45 41.54 42.09 40.23 38.52 37.41 37.11 37.45
37.68 38.05 38.28 38.30 41.67 44.15 38.75 36.71 36.25 36.81 41.01 43.52 44.19 44.14 44.06 43.42 39.29 31.71 29.54 27.96 27.46 28.53 29.23 28.62 27.87 28.02 27.90 27.65 29.82 38.37 40.16 41.37 41.92 40.58 40.00 38.76 38.06 38.02
36.88 38.09 40.91 41.73 44.10 43.20 37.39 35.55 33.94 34.14 35.38 35.73 35.83 36.44 41.53 41.01 44.37 33.58 31.40 27.66 26.39 26.86 29.72 27.76 25.55 26.57 23.68 26.03 27.80 29.98 31.88 40.11 41.99 40.97 40.05 39.63 39.19 33.20
36.72 37.33 37.92 42.24 42.51 42.46 42.42 36.96 36.35 37.35 37.90 35.59 34.80 34.77 34.09 33.75 33.35 34.75 31.69 30.39 25.46 29.48 30.59 26.62 26.40 21.20 19.48 21.45 24.91 25.24 29.25 30.66 31.82 34.28 39.26 39.45 39.30 37.43
36.50 38.59 39.00 41.10 41.78 41.56 41.32 42.06 42.67 42.14 36.05 34.54 34.11 33.90 33.92 34.18 35.06 34.72 34.48 32.23 31.46 31.37 31.40 27.78 18.68 20.80 15.79 17.09 22.06 24.65 23.00 26.04 27.94 25.59 26.26 33.01 36.15 36.82
37.77 39.25 40.28 40.27 40.51 40.04 40.57 41.25 41.14 38.87 36.68 34.22 34.20 34.55 34.17 35.48 34.26 33.22 32.10 32.71 32.08 31.91 32.64 30.48 23.69 26.27 17.89 16.24 18.64 20.95 21.81 24.56 23.95 22.80 22.64 25.29 26.78 28.00
39.35 38.78 40.04 40.07 40.69 39.10 38.07 38.26 36.37 34.36 35.32 33.19 31.57 33.14 33.50 32.80 32.80 33.17 32.52 31.69 31.38 29.70 30.27 30.59 27.07 22.49 16.52 20.59 19.98 18.65 21.18 20.68 20.72 21.78 23.99 25.08 28.18 28.72
39.18 37.93 37.07 36.19 34.30 34.31 34.11 32.82 32.80 33.44 31.51 32.69 32.64 32.84 32.85 33.18 33.38 32.86 32.48 31.30 30.26 27.91 28.07 27.41 29.71 27.52 23.04 21.82 18.41 23.61 23.60 22.88 21.61 21.37 23.16 21.96 27.56 28.89
37.60 34.92 34.36 34.50 33.70 32.68 32.06 33.08 32.73 33.86 33.13 32.86 32.73 32.80 32.70 32.75 32.95 32.19 32.16 31.95 30.39 30.06 28.07 26.25 27.49 26.64 24.19 24.63 29.61 25.00 21.57 22.70 20.41 22.35 23.11 19.17 25.60 28.84
34.91 33.61 33.01 33.47 33.54 33.72 32.84 32.71 32.33 32.84 33.00 32.64 32.81 32.88 32.69 32.81 33.14 32.86 32.01 31.76 30.88 30.44 28.79 25.95 26.75 24.40 21.23 20.06 23.90 32.11 19.65 19.93 21.37 21.59 23.84 23.54 22.56 27.69
31.29 32.36 32.13 32.70 33.12 33.57 33.70 33.12 32.57 32.52 32.44 32.76 32.72 32.74 32.64 32.42 32.26 32.06 32.01 31.30 30.88 30.41 28.56 29.24 26.74 26.12 24.24 18.23 18.45 20.90 31.43 20.02 21.98 23.35 19.81 23.81 27.18 30.96
32.64 31.48 30.38 31.14 32.10 33.28 33.60 33.36 33.11 32.38 32.33 32.26 32.41 32.41 32.64 32.28 31.90 32.25 32.27 33.95 33.02 30.71 28.01 27.46 29.92 32.56 25.18 27.42 21.14 20.62 23.74 31.56 28.24 22.87 23.59 21.13 21.05 23.96
31.64 31.59 31.82 31.90 31.85 32.86 33.29 33.22 32.84 32.39 32.27 32.47 32.49 32.52 32.65 32.50 31.92 32.09 32.10 31.66 31.77 32.18 29.99 26.42 22.12 30.36 26.49 25.60 18.38 17.45 21.87 26.07 29.51 31.65 31.71 28.48 18.51 15.37
31.71 32.08 32.18 32.39 32.16 32.64 33.06 33.10 32.93 32.63 32.37 32.25 32.35 32.42 32.49 31.82 32.28 32.29 32.18 32.07 31.82 31.42 29.51 25.89 28.69 27.48 23.44 23.58 22.42 20.57 19.42 20.55 22.90 23.24 25.69 30.05 30.96 31.76

GFSNE_sfc_wetblb_183.txt.gz
Wetbulb
44.34 44.17 43.52 44.47 44.55 45.05 45.00 44.68 44.80 41.92 42.17 40.21 40.67 44.06 45.99 44.78 45.56 44.96 44.13 46.94 49.73 50.51 50.16 49.47 47.50 46.87 46.69 47.59 47.64 49.81 50.69 51.50 52.42 53.68 54.67 56.18 57.92 59.70
43.85 43.36 43.23 43.58 43.71 43.97 44.27 44.87 45.25 44.81 42.72 43.86 41.25 42.34 43.62 44.48 45.26 44.92 43.99 46.90 47.81 49.36 49.90 49.35 47.46 46.17 45.62 46.16 45.85 47.66 48.36 49.29 50.90 51.80 52.94 53.98 55.42 56.57
40.70 41.25 41.86 42.63 42.21 42.41 42.82 43.73 44.45 45.54 44.17 45.04 43.89 42.53 41.51 42.72 43.68 43.49 43.20 41.92 42.14 46.97 48.83 48.93 48.00 46.06 45.31 45.36 44.48 45.27 46.50 47.17 48.37 49.35 50.50 51.80 52.88 53.84
39.41 39.59 39.91 42.30 40.76 41.13 41.05 41.27 42.58 44.12 44.88 43.26 43.10 42.48 41.06 41.32 41.91 40.62 41.82 42.72 40.87 44.14 46.82 47.38 47.76 46.51 45.18 45.28 43.69 42.61 44.71 44.48 45.25 46.25 47.34 49.21 50.45 51.13
39.17 39.09 39.25 39.09 38.68 39.02 39.65 39.96 40.56 43.02 42.25 43.82 42.82 41.00 40.53 39.25 39.07 38.81 38.62 38.10 38.73 41.54 43.43 45.15 46.53 47.00 45.29 45.59 44.62 42.20 42.34 43.23 43.31 43.65 44.82 45.81 47.01 47.93
39.33 38.75 38.19 37.88 37.65 37.97 38.87 39.15 40.02 39.17 38.68 39.96 41.19 39.62 38.69 38.47 36.20 36.29 35.94 34.40 34.35 37.23 39.49 40.30 43.26 43.48 43.89 44.48 45.19 43.83 40.58 42.69 42.96 42.82 41.62 41.60 42.63 43.69
37.96 37.89 37.94 38.88 41.51 42.02 41.28 39.54 38.41 37.61 36.95 37.45 40.01 37.80 35.43 34.64 35.04 35.06 32.90 32.38 32.84 33.16 31.85 32.24 32.85 33.46 34.01 38.39 41.99 44.30 42.48 40.82 42.96 42.78 41.07 40.38 40.65 41.14
36.50 36.55 36.65 39.04 39.48 42.87 44.17 45.57 43.63 38.03 36.33 36.21 39.90 39.35 39.55 37.07 34.10 33.62 32.25 31.22 32.06 30.63 30.33 29.98 30.72 30.26 31.17 31.44 38.12 41.36 43.20 42.14 41.21 42.83 40.92 39.65 39.36 39.46
35.76 35.52 36.25 38.16 38.95 37.01 39.98 42.89 43.19 44.66 45.07 38.35 39.01 37.02 34.97 35.05 34.17 31.95 31.08 31.48 30.89 30.74 30.14 29.05 28.76 29.17 30.20 32.37 38.90 40.64 41.96 41.99 41.01 42.60 40.81 39.32 38.66 38.56
35.54 35.54 34.94 35.35 36.45 38.68 37.67 36.87 36.83 36.51 37.38 38.86 38.17 38.82 37.03 36.89 35.70 35.00 32.99 30.69 30.12 29.97 30.03 27.63 27.65 27.66 28.81 29.16 37.02 40.18 41.80 42.33 41.81 42.17 41.04 39.37 38.23 37.85
35.98 35.78 35.48 35.90 39.53 43.17 37.92 34.97 33.97 34.55 38.48 40.80 41.81 42.72 43.39 43.77 40.78 31.57 29.97 27.84 28.21 28.49 28.49 28.68 27.38 27.27 27.51 27.74 29.19 36.58 41.19 42.22 41.57 41.67 41.70 40.11 39.25 38.72
35.11 35.53 39.47 39.11 41.46 42.19 39.16 35.00 34.00 33.35 34.20 34.31 34.23 35.34 36.73 36.05 41.63 36.30 32.25 27.71 29.05 30.93 28.76 27.40 25.13 25.53 23.83 25.35 27.63 28.39 30.17 38.67 40.83 41.99 42.15 41.12 40.35 36.82
34.59 34.87 35.52 40.23 40.89 40.48 40.51 37.82 37.16 38.59 39.01 38.40 36.87 34.95 33.15 32.93 33.07 36.54 36.16 34.22 31.82 32.74 32.68 28.30 20.23 21.90 19.75 22.69 25.10 24.98 27.58 29.89 31.89 33.96 39.46 41.07 40.51 38.86
35.52 36.36 35.82 39.89 40.63 40.56 39.45 40.21 40.75 40.57 37.38 36.60 35.12 34.96 34.54 34.79 34.70 35.18 35.10 34.72 35.06 34.71 34.68 31.86 31.12 25.00 18.75 17.64 22.43 25.46 23.59 24.90 27.60 26.79 27.31 33.68 37.49 39.31
35.76 37.62 40.48 40.72 41.00 40.05 40.16 40.47 39.85 38.16 36.07 33.73 33.50 33.29 32.81 33.53 33.57 33.37 32.40 33.64 33.17 33.62 34.17 32.91 31.38 27.88 25.77 24.10 20.63 21.24 23.29 24.31 23.66 23.93 21.91 25.08 26.01 27.21
36.75 35.08 37.38 39.22 39.71 38.60 37.37 37.05 36.50 35.96 35.00 34.28 33.33 33.21 32.99 33.00 32.83 33.00 32.71 32.65 32.06 32.32 32.06 32.93 32.37 30.76 28.02 27.22 25.68 20.02 22.24 22.75 20.32 21.57 23.80 24.96 27.33 27.26
36.15 34.39 34.53 32.41 31.27 32.32 33.36 33.79 33.74 33.27 32.46 31.51 32.67 32.43 32.35 32.15 32.25 32.61 32.49 32.36 31.73 31.68 30.95 30.61 31.30 30.94 30.06 26.86 26.24 24.98 24.88 22.58 21.57 20.13 22.17 21.20 25.45 27.26
33.35 30.42 29.42 29.67 29.81 31.53 31.31 31.60 32.57 33.65 33.19 32.90 32.65 32.27 32.02 32.07 32.17 32.14 32.29 32.08 31.67 31.85 31.52 30.69 28.16 26.79 24.97 25.86 29.85 25.63 23.30 22.85 20.72 20.48 21.26 16.22 20.41 24.72
29.61 29.37 28.89 30.23 31.26 31.09 30.90 31.16 31.01 32.75 33.09 32.72 32.52 32.16 31.95 32.13 32.53 32.34 32.27 32.04 31.66 31.88 32.06 30.56 27.81 25.28 18.90 16.77 24.56 32.09 23.09 22.22 18.17 19.00 21.14 23.21 17.77 23.42
28.40 27.80 28.18 28.29 29.45 30.89 30.91 30.83 31.30 31.87 29.74 32.18 32.36 32.41 32.09 31.90 31.61 31.60 31.90 31.78 31.76 32.01 31.47 29.70 27.03 24.40 23.40 20.98 21.04 21.18 31.04 20.30 18.46 22.42 16.25 21.55 24.97 30.27
28.69 29.20 29.04 28.37 28.87 30.21 30.64 31.30 31.35 31.39 31.54 31.84 32.36 32.37 32.15 31.77 31.31 31.69 31.82 33.58 33.41 31.88 30.74 29.92 29.22 32.65 28.92 26.71 25.28 24.03 24.88 30.90 25.78 18.67 25.78 25.67 24.98 22.14
30.14 28.99 28.59 28.62 28.91 30.15 31.03 31.21 31.17 31.31 31.18 31.38 31.84 32.40 32.35 32.04 31.52 31.61 31.77 31.39 31.63 32.26 32.12 32.28 30.94 31.30 27.20 24.15 20.09 18.17 20.15 23.41 28.90 31.55 31.16 29.35 17.57 11.04
30.07 29.31 28.34 28.54 28.03 30.80 30.70 31.23 31.06 30.82 31.32 31.29 31.44 31.85 32.18 30.90 32.12 32.00 31.88 31.93 31.89 31.80 31.99 31.00 28.94 28.37 28.33 26.71 24.18 20.32 19.36 19.82 20.73 20.66 22.83 31.11 32.40 31.62